[[{"header":{"parameterUnit":"m.s-1","parameterCategory":1,"la1":30.2991,"la2":30.254,"lo1":-89.0895,"lo2":-89.0444,"dy":0.0017,"dx":0.0017,"nx":28,"ny":28,"refTime":"2026-03-05T03:00:00:Z","depth":0,"parameterNumber":2,"parameterNumberName":"U-component_of_WINDS"},"data":[0,0,0,0,0,0,0,0,0,0,0,0,0,0,0,0,0,0,0,0,0,0,0,0,0,0,0,0,0,0,0,0,0,0,0,0,0,0,0,0,0,0,0,0,0,0,0,0,0,0,0,0,0,0,0,0,0,0,-4.8183,-4.8184,0,-4.8304,-4.8305,-4.8307,-4.831,-4.8309,-4.8307,-4.8306,-4.8427,-4.8432,-4.8436,0,0,0,0,0,0,0,0,0,0,0,0,0,-4.7955,-4.7959,-4.8183,-4.8184,-4.8186,-4.8304,-4.8305,-4.8307,-4.831,-4.8309,-4.8307,-4.8305,-4.8426,-4.8431,-4.8437,0,0,0,0,0,0,0,0,0,0,0,0,0,-4.8063,-4.796,-4.8183,-4.8202,-4.8205,-4.8303,-4.8306,-4.8308,-4.8311,-4.8309,-4.8306,-4.8304,-4.8424,-4.843,-4.8437,-4.8524,0,0,-4.8458,-4.8461,0,0,0,0,0,0,0,0,-4.8056,-4.8071,-4.8198,-4.8201,-4.8204,-4.829,-4.827,-4.838,-4.8311,-4.827,-4.8306,-4.8303,-4.8383,-4.8393,-4.8421,-4.853,-4.8535,-4.8459,-4.8463,-4.8466,-4.8468,0,0,0,0,0,0,0,-4.8049,-4.8066,-4.8231,-4.8199,-4.8203,-4.8205,-4.8217,-4.829,-4.8338,-4.8274,-4.8274,-4.8289,-4.8384,-4.8414,-4.8423,-4.8537,-4.8459,-4.8465,-4.8469,-4.8472,-4.8726,-4.8728,0,0,0,0,0,0,-4.8038,-4.8059,-4.8227,-4.8234,-4.8123,-4.821,-4.8225,-4.8264,-4.8337,-4.8346,-4.8291,-4.8289,-4.8403,-4.8415,-4.8428,-4.8535,-4.8466,-4.8473,-4.8477,-4.8723,-4.8726,-4.8729,0,0,0,0,0,0,-4.8033,-4.8053,-4.8222,-4.8147,-4.8169,-4.8217,-4.8261,-4.8268,-4.8297,-4.835,-4.8358,-4.8312,-4.8402,-4.8418,-4.8501,-4.8539,-4.8476,-4.8482,-4.872,-4.8724,-4.8728,-4.8748,0,0,0,0,0,0,-4.8026,-4.8051,-4.8084,-4.8148,-4.8173,-4.8293,-4.8264,-4.8272,-4.831,-4.8308,-4.8372,-4.838,-4.8401,-4.849,-4.8508,-4.8547,-4.8487,-4.8717,-4.8722,-4.8726,-4.8744,-4.8753,-4.8759,0,0,0,0,0,-4.8018,-4.8084,-4.8086,-4.8106,-4.8215,-4.8295,-4.8309,-4.8333,-4.8313,-4.8346,-4.8381,-4.8378,-4.8533,-4.8499,-4.8518,-4.856,-4.8714,-4.872,-4.8726,-4.8741,-4.8751,-4.8759,0,0,0,0,0,0,-4.8021,-4.8092,-4.8095,-4.8183,-4.8234,-4.8295,-4.8338,-4.8342,-4.8398,-4.8394,-4.8421,-4.8435,-4.8518,-4.8548,-4.8509,-4.865,-4.8621,-4.8631,-4.8626,-4.8636,-4.8643,-4.8633,-4.8493,0,0,0,0,0,-4.8032,-4.8092,-4.8151,-4.8223,-4.8248,-4.8289,-4.8325,-4.834,-4.8392,-4.8412,-4.8452,-4.8503,-4.8563,-4.8602,-4.866,-4.8751,-4.8764,-4.8789,-4.8797,-4.8803,-4.881,-4.8861,-4.8873,-4.8748,-4.8748,-4.8748,0,0,-4.8055,-4.8102,-4.8137,-4.8225,-4.8265,-4.8326,-4.8307,-4.8371,-4.8416,-4.8422,-4.8502,-4.8534,-4.8593,-4.868,-4.8721,-4.8707,-4.8849,-4.881,-4.8815,-4.8819,-4.8869,-4.888,-4.8891,-4.8752,-4.8752,-4.8751,0,0,-4.8128,-4.8169,-4.8234,-4.8276,-4.8339,-4.8366,-4.8382,-4.8445,-4.8467,-4.8549,-4.8555,-4.861,-4.8712,-4.8754,-4.8789,-4.8883,-4.8882,-4.8901,-4.8938,-4.8988,-4.8998,-4.9007,-4.904,-4.9051,-4.8909,-4.8909,-4.8909,0,-4.8147,-4.8239,-4.8267,-4.8333,-4.8371,-4.8383,-4.8449,-4.8488,-4.8566,-4.8592,-4.8578,-4.8709,-4.8749,-4.8847,-4.887,-4.8898,-4.8917,-4.8892,-4.8995,-4.9004,-4.9012,-4.9044,-4.9056,-4.8911,-4.891,-4.891,-4.891,0,-4.8261,-4.8325,-4.8371,-4.8447,-4.8492,-4.8557,-4.8595,-4.8637,-4.865,-4.8679,-4.8764,-4.8813,-4.8882,-4.8907,-4.8919,-4.9008,-4.8998,-4.8989,-4.896,-4.9026,-4.9056,-4.9068,-4.8913,-4.8912,-4.8912,-4.8912,0,0,-4.8333,-4.8428,-4.8444,-4.848,-4.8552,-4.8602,-4.8669,-4.8738,-4.8774,-4.8829,-4.8885,-4.8975,-4.8968,-4.9007,-4.9025,-4.9069,-4.914,-4.9055,-4.9057,-4.9068,-4.9241,-4.9245,-4.9259,-4.9143,-4.9145,-4.9147,-4.9236,0,-4.8412,-4.8532,-4.8561,-4.8663,-4.8723,-4.8737,-4.8796,-4.8847,-4.8878,-4.8933,-4.8968,-4.903,-4.9017,-4.9041,-4.9085,-4.9122,-4.9175,-4.9116,-4.9194,-4.9197,-4.9176,-4.9275,-4.9279,-4.936,-4.9248,-4.925,-4.9251,0,-4.8518,-4.8578,-4.8686,-4.8753,-4.8779,-4.8832,-4.8899,-4.8952,-4.9011,-4.9031,-4.9077,-4.9091,-4.9163,-4.9134,-4.9233,-4.9192,-4.9227,-4.9251,-4.9254,-4.926,-4.9225,-4.9281,-4.9387,-4.9398,-4.927,-4.9269,-4.9267,0,-4.8559,-4.8666,-4.8745,-4.8776,-4.8856,-4.8892,-4.8927,-4.8984,-4.9025,-4.9085,-4.9111,-4.9178,-4.9214,-4.9265,-4.9297,-4.9274,-4.9394,-4.9368,-4.9411,-4.9411,-4.9433,-4.943,-4.9543,-4.946,-4.9459,-4.9459,-4.9459,0,-4.8642,-4.8707,-4.8765,-4.8813,-4.8888,-4.8922,-4.8995,-4.9031,-4.9082,-4.9138,-4.9155,-4.9207,-4.9248,-4.9306,-4.9332,-4.941,-4.9427,-4.9444,-4.945,-4.9441,-4.9439,-4.9461,-4.9456,-4.9462,-4.9462,-4.9461,-4.946,0,-4.8697,-4.8738,-4.8825,-4.8896,-4.8915,-4.8967,-4.9027,-4.9075,-4.9109,-4.918,-4.9198,-4.925,-4.932,-4.9359,-4.9445,-4.9463,-4.955,-4.9554,-4.953,-4.9532,-4.9573,-4.9567,-4.9702,-4.9721,-4.9627,-4.9628,-4.9628,0,-4.8745,-4.8797,-4.8874,-4.8913,-4.8949,-4.9012,-4.9055,-4.9093,-4.9136,-4.921,-4.9249,-4.932,-4.9379,-4.949,-4.9535,-4.9602,-4.9606,-4.9649,-4.9616,-4.9607,-4.9605,-4.9601,-4.9606,-4.9653,-4.9654,-4.9655,-4.9656,0,-4.8827,-4.8846,-4.8907,-4.8977,-4.9027,-4.9083,-4.9139,-4.917,-4.9217,-4.9266,-4.9338,-4.9384,-4.9475,-4.9545,-4.9617,-4.9653,-4.9662,-4.9667,-4.968,-4.967,-4.9653,-4.9661,-4.9543,-4.9662,-4.9661,-4.9661,-4.9661,-4.966,-4.888,-4.8926,-4.8989,-4.9057,-4.9103,-4.9156,-4.9205,-4.9246,-4.9307,-4.9384,-4.9404,-4.948,-4.9541,-4.9639,-4.9678,-4.9738,-4.973,-4.9749,-4.9754,-4.9757,-4.9758,-4.9647,-4.9752,-4.9751,-4.9751,-4.9751,-4.9751,0,-4.8961,-4.9003,-4.9065,-4.9144,-4.9198,-4.9205,-4.9268,-4.9313,-4.938,-4.9436,-4.9495,-4.9579,-4.9649,-4.9702,-4.9773,-4.9811,-4.9818,-4.9829,-4.9825,-4.9833,-4.9762,-4.9742,-4.9823,-4.9823,-4.9823,-4.9823,-4.9823,-4.9823,-4.9009,-4.9089,-4.9116,-4.922,-4.9261,-4.9337,-4.9372,-4.9421,-4.9467,-4.9561,-4.9619,-4.9654,-4.971,-4.9786,-4.9851,-4.9865,-4.9889,-4.99,-4.9914,-4.9846,-4.9838,-4.983,-4.9812,-4.9905,-4.9905,-4.9979,-4.998,-4.9981]},{"header":{"parameterUnit":"m.s-1","parameterCategory":1,"la1":30.2991,"la2":30.254,"lo1":-89.0895,"lo2":-89.0444,"dy":0.0017,"dx":0.0017,"nx":28,"ny":28,"refTime":"2026-03-05T03:00:00:Z","depth":0,"parameterNumber":3,"parameterNumberName":"V-component_of_WINDS"},"data":[0,0,0,0,0,0,0,0,0,0,0,0,0,0,0,0,0,0,0,0,0,0,0,0,0,0,0,0,0,0,0,0,0,0,0,0,0,0,0,0,0,0,0,0,0,0,0,0,0,0,0,0,0,0,0,0,0,0,2.3922,2.3923,0,2.4004,2.4005,2.4005,2.4065,2.4065,2.4066,2.4066,2.4147,2.4149,2.415,0,0,0,0,0,0,0,0,0,0,0,0,0,2.3817,2.3819,2.3922,2.3923,2.3924,2.4003,2.4005,2.4006,2.4065,2.4065,2.4066,2.4067,2.4147,2.4149,2.4151,0,0,0,0,0,0,0,0,0,0,0,0,0,2.3877,2.3819,2.3922,2.3963,2.3968,2.4003,2.4005,2.4006,2.4065,2.4065,2.4066,2.4067,2.4146,2.4148,2.4151,2.4151,0,0,2.4158,2.416,0,0,0,0,0,0,0,0,2.3874,2.3881,2.3956,2.396,2.3965,2.4025,2.3997,2.4054,2.4064,2.4028,2.4066,2.4067,2.4106,2.4111,2.4125,2.4155,2.4158,2.4159,2.416,2.4161,2.4162,0,0,0,0,0,0,0,2.3869,2.3878,2.3954,2.3957,2.3963,2.3978,2.3987,2.4009,2.4061,2.4031,2.4035,2.4044,2.4108,2.4122,2.4127,2.4159,2.4159,2.4161,2.4162,2.4163,2.4198,2.4198,0,0,0,0,0,0,2.3859,2.3874,2.3951,2.3957,2.392,2.3979,2.3989,2.4005,2.4061,2.4071,2.4044,2.4047,2.4118,2.4124,2.413,2.4137,2.4161,2.4164,2.4165,2.4199,2.4198,2.4198,0,0,0,0,0,0,2.3856,2.3865,2.3948,2.3917,2.3928,2.398,2.3997,2.4006,2.402,2.4071,2.4081,2.4048,2.4119,2.4127,2.4147,2.4141,2.4165,2.4167,2.42,2.4199,2.4198,2.4149,0,0,0,0,0,0,2.3853,2.3864,2.3864,2.3916,2.393,2.3963,2.3996,2.4007,2.4025,2.403,2.4078,2.4087,2.412,2.4143,2.4149,2.4145,2.4169,2.42,2.4199,2.4198,2.4151,2.4147,2.4143,0,0,0,0,0,2.3849,2.3845,2.3864,2.3873,2.3931,2.3962,2.397,2.4009,2.4024,2.4025,2.4059,2.4085,2.4141,2.4144,2.4152,2.4148,2.4201,2.4199,2.4198,2.4153,2.4148,2.4143,0,0,0,0,0,0,2.3789,2.3853,2.3874,2.3887,2.3919,2.3972,2.3974,2.4001,2.4029,2.4032,2.4079,2.4089,2.4105,2.4128,2.4131,2.4154,2.4174,2.4174,2.4138,2.4132,2.4128,2.4122,2.4171,0,0,0,0,0,2.3778,2.3798,2.3853,2.3859,2.3874,2.3922,2.3936,2.3965,2.3999,2.4013,2.4047,2.4079,2.4105,2.412,2.4145,2.4156,2.4168,2.4157,2.4153,2.4149,2.4148,2.4159,2.4156,2.4193,2.4193,2.4193,0,0,2.3754,2.3791,2.3801,2.3848,2.3876,2.3897,2.3932,2.3951,2.3968,2.4015,2.4037,2.4064,2.4103,2.4119,2.4128,2.4139,2.4141,2.4147,2.4144,2.4146,2.4158,2.4154,2.4151,2.4192,2.4193,2.4193,0,0,2.3721,2.3751,2.3761,2.379,2.3833,2.3865,2.3868,2.3918,2.3938,2.3961,2.3999,2.4019,2.406,2.4088,2.4107,2.409,2.4116,2.4097,2.4073,2.4083,2.4081,2.4078,2.4074,2.4072,2.4096,2.4096,2.4096,0,2.3685,2.3718,2.3762,2.3781,2.3802,2.3849,2.386,2.3885,2.3934,2.3948,2.396,2.4017,2.4046,2.4071,2.4067,2.4081,2.4086,2.4091,2.4078,2.4076,2.4074,2.4071,2.4069,2.4094,2.4094,2.4094,2.4094,0,2.3674,2.3697,2.37,2.3749,2.377,2.3784,2.3832,2.3848,2.3875,2.3906,2.3931,2.3969,2.4005,2.4013,2.4038,2.4043,2.4049,2.4069,2.409,2.4067,2.4065,2.4064,2.409,2.4091,2.4092,2.4092,0,0,2.3603,2.3679,2.368,2.3704,2.3757,2.3776,2.3794,2.3831,2.3845,2.3878,2.3896,2.3932,2.3953,2.3975,2.4004,2.4013,2.4001,2.4033,2.4034,2.4027,2.4011,2.3996,2.3994,2.4019,2.4019,2.4019,2.4008,0,2.358,2.3616,2.3658,2.368,2.3703,2.375,2.3766,2.3801,2.3831,2.3856,2.3889,2.3916,2.3939,2.3953,2.3964,2.4,2.3998,2.4001,2.4036,2.4037,2.4026,2.3993,2.3976,2.3964,2.4008,2.4007,2.4007,0,2.3556,2.359,2.3615,2.367,2.3681,2.3695,2.3735,2.3757,2.3799,2.3821,2.3848,2.388,2.3904,2.3923,2.3956,2.3957,2.3975,2.3995,2.3996,2.4001,2.4021,2.3998,2.3961,2.396,2.4006,2.4006,2.4006,0,2.3505,2.3556,2.3579,2.3598,2.3662,2.3672,2.3698,2.3741,2.3762,2.3796,2.3811,2.3847,2.3867,2.3894,2.3937,2.3946,2.3967,2.3989,2.3987,2.3986,2.3988,2.3988,2.3955,2.3998,2.3998,2.3998,2.3998,0,2.3475,2.3489,2.3557,2.3571,2.3589,2.3638,2.3654,2.3686,2.3724,2.3745,2.3787,2.3806,2.3861,2.3887,2.392,2.3945,2.3953,2.3972,2.3981,2.3969,2.3966,2.3981,2.3983,2.3997,2.3998,2.3998,2.3998,0,2.342,2.3466,2.3495,2.3554,2.357,2.3581,2.3632,2.3648,2.3683,2.371,2.3719,2.3773,2.3806,2.3852,2.3898,2.3921,2.3941,2.3954,2.3928,2.3933,2.3929,2.3929,2.3905,2.3906,2.3946,2.3946,2.3945,0,2.3398,2.3411,2.3473,2.3492,2.3518,2.3546,2.3569,2.3619,2.3641,2.3692,2.3702,2.3739,2.3771,2.3823,2.3866,2.3903,2.3918,2.3907,2.3924,2.3913,2.392,2.3919,2.3922,2.3903,2.3902,2.3902,2.3901,0,2.3355,2.3379,2.341,2.3451,2.3478,2.3511,2.3547,2.356,2.3618,2.364,2.3676,2.3701,2.3751,2.3788,2.3832,2.386,2.3891,2.3896,2.3898,2.3886,2.3871,2.3881,2.3918,2.3896,2.3897,2.3897,2.3897,2.3898,2.3318,2.3332,2.338,2.3415,2.3448,2.3481,2.35,2.3539,2.357,2.3615,2.3643,2.3678,2.3723,2.3785,2.3813,2.3842,2.3854,2.3855,2.3856,2.3856,2.3853,2.3866,2.3849,2.385,2.385,2.385,2.385,0,2.3279,2.3313,2.3344,2.3395,2.3423,2.3451,2.3494,2.3515,2.3546,2.3586,2.3618,2.3661,2.3698,2.3746,2.3787,2.3801,2.3817,2.381,2.381,2.3817,2.3839,2.3834,2.3798,2.3798,2.3798,2.3798,2.3798,2.3798,2.3262,2.3289,2.3319,2.3364,2.3398,2.3434,2.3456,2.3488,2.352,2.3567,2.3599,2.3631,2.3675,2.372,2.3756,2.3769,2.3783,2.3773,2.379,2.381,2.3815,2.3819,2.3815,2.3775,2.3775,2.3766,2.3766,2.3766]}]]